Wind_Speed
43 44 45 45 46 47 47 46 47 48 49 51 53 55 58 61 61 61 60 59 59 59 58 54 50 49 48 44 41 40 39 37 36 37 37 35 33 31 31 31 30 30 29
40 41 41 41 42 43 44 45 46 48 50 51 53 56 59 62 63 63 62 60 60 61 60 59 55 54 53 49 46 42 40 38 38 38 38 35 34 34 32 32 32 32 31
37 38 39 40 41 43 44 45 46 47 48 49 50 52 53 56 62 65 63 59 56 55 53 51 52 55 55 53 50 47 43 42 41 41 41 39 35 33 32 33 34 33 32
41 41 41 41 42 42 42 43 45 46 47 48 49 51 51 49 50 54 55 53 52 51 47 43 46 51 52 53 53 51 48 47 46 45 46 45 40 34 30 31 34 34 31
39 38 38 38 38 38 38 39 40 41 43 44 46 48 49 49 50 50 50 51 49 46 44 39 40 47 50 51 53 52 51 51 50 48 46 43 40 35 30 28 29 32 31
31 31 31 31 31 33 34 36 37 38 41 43 45 47 49 50 49 48 46 46 44 41 39 36 36 43 48 49 49 49 49 48 47 44 41 40 37 32 28 26 27 29 31
27 28 29 30 31 33 35 36 38 39 41 43 45 48 50 51 51 48 44 42 39 37 35 34 34 38 40 40 42 41 40 39 39 38 37 36 32 29 28 27 26 28 30
28 29 29 30 32 33 35 37 38 40 43 46 48 47 48 49 49 47 41 37 34 32 31 32 33 33 33 34 36 36 37 37 37 36 35 33 30 28 28 27 28 29 30
31 31 31 31 32 33 36 38 39 42 45 47 46 44 43 44 43 40 36 32 30 28 29 31 32 31 31 31 32 34 36 37 36 35 33 30 29 28 29 29 30 31 31
33 34 33 32 33 34 36 38 41 44 46 44 40 38 37 37 36 34 33 31 28 25 25 27 27 26 26 28 30 31 32 33 32 30 28 27 27 27 27 29 30 30 31
34 35 35 35 35 35 36 38 40 43 42 37 34 32 32 32 32 32 33 32 28 26 25 25 24 24 27 30 32 32 30 28 27 27 28 29 29 28 29 30 31 31 31
35 35 35 35 36 35 34 35 38 38 34 29 27 28 30 32 33 32 30 29 29 28 27 27 26 27 29 30 30 29 27 26 27 28 29 29 29 30 32 33 34 35 35
34 35 35 35 34 32 30 32 34 32 30 25 22 22 24 24 26 29 29 28 29 30 29 29 28 27 25 24 24 25 26 26 27 28 29 30 31 32 33 34 36 38 40
34 34 34 33 31 29 27 28 29 30 29 27 26 22 21 20 21 22 26 29 30 30 27 26 25 25 25 24 23 24 25 26 27 29 30 31 32 33 34 35 37 39 40
31 32 30 29 27 25 24 24 25 26 25 23 22 20 18 16 13 14 17 20 22 21 20 20 21 22 23 23 23 24 25 27 29 30 31 31 32 33 34 35 36 37 38
29 29 27 25 23 21 21 21 22 23 21 18 19 19 18 16 13 11 10 12 14 15 17 18 19 20 21 21 22 23 24 26 27 29 30 31 32 33 33 34 34 34 35
27 26 24 22 21 19 18 18 19 19 17 16 16 18 19 17 15 15 15 15 16 17 18 19 20 20 20 21 21 21 22 23 24 26 29 30 31 31 32 32 32 33 34
27 24 23 21 20 18 17 17 17 16 14 13 13 15 16 17 17 16 17 17 18 19 20 19 19 19 20 19 19 19 19 20 21 23 25 27 28 30 30 30 31 32 33
25 23 22 21 19 18 16 15 15 13 12 11 10 11 12 14 15 16 18 20 20 20 20 20 19 19 19 18 17 17 18 19 20 22 23 25 26 27 27 28 29 31 32
24 22 22 21 18 16 15 13 11 9 8 9 9 10 11 13 15 17 19 21 22 21 20 20 19 17 15 14 13 13 15 17 18 20 21 21 21 22 23 24 26 28 30
23 21 21 21 18 15 14 11 8 7 7 7 8 10 11 13 14 16 18 19 19 19 18 15 13 12 12 12 12 14 16 17 16 15 14 15 17 19 22 26 29 31 33
24 22 23 22 20 18 16 14 12 10 9 8 8 9 10 10 11 12 12 13 13 13 12 10 10 11 12 12 14 15 15 13 12 12 14 16 19 22 25 28 31 32 33
27 23 25 25 23 21 20 18 15 13 12 11 10 10 9 7 6 6 6 6 7 8 9 10 10 12 13 13 13 12 12 12 13 15 17 19 21 23 23 24 26 27 28
29 26 25 28 27 25 24 22 19 16 14 13 11 9 8 8 7 6 6 5 6 6 8 9 11 12 12 11 11 12 13 14 15 16 17 19 20 21 21 23 24 24 23
31 28 26 28 29 28 27 26 23 20 18 16 14 12 9 8 8 8 7 7 7 8 9 10 12 13 13 14 14 13 13 13 13 14 17 19 20 21 22 23 23 22 21
33 31 30 29 30 30 29 28 26 23 21 19 18 17 15 12 11 10 10 10 10 10 11 11 12 13 13 13 13 13 13 13 13 15 17 18 19 22 24 24 23 22 21
Wind_Direction
272 272 273 274 274 274 275 275 275 273 273 273 271 268 267 268 266 264 263 264 266 267 266 264 261 260 261 260 260 259 258 260 264 269 274 279 284 286 285 283 282 280 278
271 271 272 272 272 272 273 273 274 273 274 277 277 274 271 268 268 269 269 269 270 272 270 264 259 256 257 257 258 259 258 259 263 268 274 278 282 285 285 285 283 280 277
270 270 271 272 271 272 272 271 272 273 274 277 279 280 282 279 271 269 269 272 275 279 277 268 258 253 253 254 257 257 257 259 262 268 274 279 280 280 283 283 282 280 276
272 272 272 271 271 272 273 272 273 274 275 275 276 277 279 280 277 274 274 276 281 282 279 269 254 249 250 254 255 256 255 257 260 266 272 277 278 277 275 277 278 279 276
275 276 276 275 275 276 276 276 277 277 277 277 276 275 275 274 272 273 276 280 280 280 278 270 256 248 248 252 254 254 255 255 258 262 268 272 274 274 271 269 272 276 278
278 279 280 280 280 281 283 283 282 281 280 280 279 277 276 274 274 275 278 280 278 274 272 266 257 249 249 252 253 253 253 254 257 260 263 267 270 269 266 265 268 273 275
284 286 288 288 288 287 287 288 289 289 288 288 285 281 277 275 274 276 277 277 276 269 262 257 253 251 250 247 245 245 247 251 255 259 263 266 266 264 264 265 267 271 274
286 287 290 290 290 290 290 291 292 293 293 294 292 285 277 272 270 270 270 268 268 265 257 251 247 245 241 238 238 240 246 251 254 259 262 264 263 263 264 265 266 267 270
284 287 290 292 293 294 294 296 300 301 300 297 291 281 272 266 263 260 258 256 256 256 253 246 242 238 237 238 241 245 250 251 253 257 260 260 261 262 263 263 264 266 270
285 289 295 298 300 300 300 302 305 305 303 297 285 274 266 259 252 246 243 244 245 247 247 242 238 237 238 239 242 246 250 252 252 253 254 256 258 260 261 262 265 269 273
287 292 298 301 304 304 304 306 307 306 303 293 279 266 256 249 240 236 236 239 239 239 240 241 240 241 243 245 246 248 248 247 249 252 255 256 257 261 263 264 265 268 272
286 291 297 300 304 304 305 306 306 307 303 290 265 252 244 236 229 231 231 231 234 233 234 236 239 243 248 248 246 244 245 248 252 256 258 259 262 264 265 266 267 269 270
284 289 295 299 303 304 304 305 306 305 302 291 263 257 251 243 234 233 232 230 227 227 231 234 236 241 246 246 245 247 250 254 257 259 261 263 265 266 267 268 269 270 270
282 288 294 298 301 303 307 308 307 305 299 291 281 276 274 259 243 235 230 227 226 228 232 236 240 243 245 246 248 251 254 258 262 264 266 267 268 270 270 270 270 270 270
282 287 291 296 299 304 312 315 315 313 302 290 287 287 285 276 261 247 239 240 240 241 244 248 252 251 251 253 257 259 262 265 268 269 270 271 272 273 273 273 272 272 272
283 284 287 294 296 302 314 321 324 321 307 289 280 280 282 286 285 284 276 264 259 257 254 256 259 260 260 262 263 264 266 267 269 271 272 273 274 274 274 275 276 276 276
281 279 284 291 291 297 307 318 327 328 315 291 276 271 274 282 289 292 290 283 275 269 267 268 265 265 267 267 264 263 265 267 268 270 272 274 275 277 278 279 279 279 278
278 275 281 286 286 287 294 305 317 323 317 297 277 268 270 276 283 283 283 281 277 272 268 270 272 272 268 261 257 259 263 266 270 273 275 276 278 280 282 283 283 283 281
282 270 274 279 280 279 281 292 303 310 309 298 282 273 269 269 271 270 271 272 273 273 272 270 270 268 264 259 258 262 266 269 273 276 278 279 281 283 285 286 285 284 284
286 267 268 272 272 270 269 278 290 302 304 296 289 283 276 270 268 266 266 269 270 270 269 267 262 260 260 259 260 263 268 273 276 279 281 284 286 288 289 289 288 288 287
288 263 261 265 264 261 257 257 265 286 302 303 297 294 286 274 264 261 265 266 262 258 259 257 252 249 249 251 257 265 272 275 277 281 285 289 291 291 291 290 290 289 288
292 265 256 260 259 255 250 246 252 266 281 289 293 295 292 283 264 256 259 257 251 246 248 253 251 248 248 253 262 271 273 272 276 281 284 288 293 295 297 297 296 293 291
292 275 256 254 255 253 249 245 248 258 268 273 280 290 289 279 256 234 234 235 233 235 243 251 252 253 258 263 266 265 265 269 274 278 284 292 299 302 306 307 304 299 294
289 282 265 252 250 251 249 248 250 255 259 262 267 274 272 256 240 220 206 206 213 224 237 247 253 258 261 262 264 266 271 275 276 279 288 300 309 314 316 315 312 307 301
285 281 273 256 246 246 246 247 250 253 252 251 253 255 253 246 239 233 228 227 229 236 246 252 256 260 263 266 268 269 276 277 276 287 302 312 319 323 322 319 314 310 306
277 278 274 261 245 240 240 242 245 248 247 245 244 244 243 241 240 239 242 243 244 245 249 251 251 253 257 262 266 272 275 270 276 294 309 320 327 332 332 328 320 311 304
Height
5874 5874 5873 5873 5872 5870 5869 5867 5866 5865 5863 5862 5861 5860 5859 5857 5855 5853 5851 5851 5850 5850 5848 5848 5847 5848 5849 5850 5852 5854 5856 5856 5856 5856 5856 5855 5854 5852 5850 5849 5847 5846 5844
5865 5865 5864 5863 5862 5861 5860 5858 5857 5855 5854 5852 5850 5849 5847 5845 5844 5843 5842 5841 5840 5838 5836 5835 5835 5835 5836 5839 5841 5844 5846 5847 5847 5847 5848 5849 5847 5844 5843 5841 5839 5838 5836
5857 5857 5856 5855 5854 5852 5850 5849 5847 5845 5843 5841 5839 5836 5833 5832 5833 5833 5831 5830 5828 5825 5822 5820 5820 5822 5825 5828 5830 5833 5836 5838 5838 5838 5839 5840 5840 5837 5836 5833 5831 5830 5829
5849 5848 5847 5846 5844 5842 5839 5837 5835 5833 5831 5829 5827 5824 5822 5821 5820 5818 5818 5816 5815 5812 5809 5806 5806 5809 5814 5817 5820 5822 5825 5828 5829 5830 5829 5830 5829 5829 5828 5826 5823 5821 5820
5839 5837 5835 5834 5832 5830 5828 5826 5824 5821 5819 5816 5814 5811 5810 5809 5807 5805 5803 5802 5801 5799 5798 5796 5796 5799 5803 5806 5809 5812 5814 5817 5820 5822 5822 5821 5820 5819 5819 5818 5816 5813 5811
5829 5827 5825 5824 5822 5819 5817 5815 5812 5810 5807 5804 5801 5799 5797 5795 5793 5790 5788 5787 5787 5787 5787 5787 5789 5791 5794 5797 5800 5802 5805 5807 5810 5812 5813 5813 5812 5810 5809 5809 5808 5806 5803
5820 5819 5817 5815 5812 5809 5806 5803 5801 5798 5794 5791 5787 5784 5781 5778 5776 5775 5774 5774 5775 5776 5777 5778 5779 5781 5784 5787 5790 5793 5796 5798 5801 5802 5803 5804 5803 5802 5801 5801 5800 5798 5796
5814 5812 5809 5806 5803 5800 5796 5793 5790 5785 5780 5775 5770 5766 5764 5762 5761 5761 5762 5763 5765 5766 5766 5768 5770 5772 5775 5778 5782 5785 5787 5790 5792 5793 5794 5794 5794 5794 5793 5793 5793 5791 5790
5807 5804 5801 5798 5794 5790 5786 5781 5777 5771 5765 5759 5753 5749 5747 5747 5747 5748 5750 5752 5755 5756 5758 5759 5761 5763 5766 5770 5773 5777 5779 5782 5783 5784 5785 5785 5785 5785 5785 5784 5785 5784 5782
5798 5795 5792 5788 5784 5780 5775 5769 5763 5756 5750 5743 5738 5734 5733 5734 5735 5738 5740 5743 5745 5747 5749 5751 5753 5755 5759 5763 5766 5769 5771 5773 5775 5775 5775 5776 5776 5775 5775 5776 5776 5775 5773
5790 5787 5783 5779 5774 5769 5764 5758 5751 5744 5737 5730 5726 5723 5722 5723 5726 5728 5730 5733 5737 5740 5742 5743 5746 5750 5753 5756 5759 5761 5763 5764 5765 5766 5767 5767 5767 5766 5766 5766 5766 5765 5764
5782 5779 5775 5771 5766 5760 5754 5748 5741 5734 5727 5722 5718 5716 5715 5715 5717 5720 5722 5725 5729 5732 5734 5736 5739 5743 5746 5748 5749 5752 5754 5755 5756 5757 5758 5758 5758 5758 5758 5757 5757 5756 5755
5773 5770 5767 5762 5757 5752 5746 5740 5733 5728 5721 5717 5713 5712 5711 5710 5711 5714 5717 5720 5722 5724 5726 5729 5733 5736 5738 5740 5742 5745 5746 5747 5748 5749 5749 5749 5749 5749 5749 5748 5747 5747 5747
5764 5761 5758 5754 5750 5744 5738 5732 5726 5720 5715 5712 5710 5708 5707 5707 5707 5708 5711 5713 5715 5717 5720 5723 5726 5729 5732 5734 5735 5737 5738 5739 5740 5741 5740 5740 5741 5740 5740 5739 5739 5738 5737
5754 5752 5750 5747 5742 5737 5731 5725 5719 5714 5709 5706 5705 5704 5704 5704 5705 5706 5708 5710 5712 5714 5716 5719 5721 5724 5725 5727 5728 5730 5730 5731 5732 5732 5732 5732 5732 5732 5732 5731 5730 5729 5728
5744 5743 5741 5739 5735 5730 5725 5719 5714 5709 5704 5701 5700 5700 5701 5701 5702 5703 5705 5707 5708 5710 5712 5714 5717 5719 5720 5721 5722 5723 5723 5724 5724 5724 5724 5724 5723 5723 5723 5723 5721 5720 5719
5735 5734 5733 5731 5728 5724 5720 5715 5711 5706 5701 5698 5697 5697 5697 5698 5699 5700 5701 5703 5704 5706 5708 5710 5712 5713 5714 5715 5716 5716 5717 5717 5717 5717 5717 5716 5716 5715 5714 5713 5712 5711 5709
5726 5725 5724 5723 5721 5718 5714 5711 5707 5703 5700 5696 5695 5694 5694 5694 5695 5697 5698 5698 5700 5701 5703 5705 5705 5707 5708 5709 5710 5711 5711 5711 5711 5711 5710 5710 5709 5708 5706 5705 5704 5702 5701
5717 5716 5715 5715 5714 5712 5709 5707 5704 5701 5698 5696 5694 5692 5692 5691 5692 5693 5694 5694 5695 5696 5698 5699 5701 5702 5702 5703 5704 5705 5706 5705 5705 5704 5704 5703 5702 5700 5698 5697 5696 5694 5691
5709 5708 5708 5708 5707 5706 5704 5703 5701 5698 5696 5694 5693 5691 5690 5689 5689 5690 5690 5690 5690 5691 5693 5694 5696 5697 5697 5698 5699 5700 5700 5700 5699 5699 5698 5697 5696 5694 5692 5691 5688 5685 5682
5701 5700 5700 5701 5701 5700 5699 5698 5697 5695 5693 5692 5690 5689 5688 5687 5686 5686 5685 5685 5686 5687 5688 5689 5690 5692 5693 5693 5694 5695 5695 5695 5695 5694 5694 5693 5691 5689 5687 5684 5681 5677 5674
5694 5693 5693 5693 5694 5694 5694 5694 5693 5692 5691 5690 5688 5687 5685 5684 5683 5683 5683 5682 5683 5684 5685 5686 5687 5688 5689 5690 5690 5691 5692 5692 5692 5691 5690 5689 5687 5684 5681 5677 5673 5669 5666
5686 5685 5685 5685 5686 5687 5688 5688 5688 5688 5687 5687 5685 5684 5683 5682 5682 5681 5681 5681 5681 5682 5683 5684 5685 5685 5686 5686 5687 5687 5688 5688 5688 5687 5685 5684 5681 5678 5674 5670 5666 5662 5658
5677 5676 5675 5676 5678 5679 5680 5681 5681 5682 5682 5682 5682 5681 5681 5680 5680 5680 5679 5680 5680 5681 5681 5682 5682 5682 5683 5683 5683 5683 5684 5683 5683 5682 5680 5678 5675 5671 5667 5663 5659 5655 5651
5667 5667 5666 5666 5668 5670 5672 5673 5674 5675 5675 5676 5677 5677 5677 5677 5678 5678 5678 5678 5679 5679 5679 5679 5679 5679 5679 5680 5679 5679 5679 5678 5678 5677 5675 5672 5669 5665 5661 5656 5652 5648 5645
5657 5656 5656 5656 5657 5659 5662 5664 5666 5668 5669 5670 5671 5671 5672 5673 5674 5674 5674 5675 5675 5676 5676 5676 5675 5675 5675 5675 5675 5675 5674 5674 5673 5672 5669 5666 5662 5659 5654 5650 5646 5642 5638